User: anonymous   Login
Location: Nairn
(57.5833°N, 3.8667°W)
Time: 16:15:19
(UTC+00:00)
Language:

Explorer 11/Cluster Stage 4 - Orbit

View from above orbital plane
View from above orbital plane
View from above satellite
View from above satellite

Ground track
Ground track

The orbit data is extracted from the following two-line orbital elements,

1   107U 61013A   20330.76487934  .00000447  00000-0  40565-4 0  9994
2   107  28.7885 350.3559 0546542 134.5819 230.0703 14.09050273988545
Epoch (UTC): 25 November 2020 18:21:25
Eccentricity: 0.0546542
inclination: 28.7885°
perigee height: 467 km
apogee height: 1258 km
right ascension of ascending node: 350.3559°
argument of perigee: 134.5819°
revolutions per day: 14.09050273
mean anomaly at epoch: 230.0703°
orbit number at epoch: 98854

The dashed part of the orbit path shows where the satellite is in the earth's shadow,  

DLR